This is the latest recevied weather packets stored in our database for station/object KJ5BMY-13. If no packets are shown the sender has not sent any weather packets the latest 10 day(s).
| Time | Temp. | Humidity | Pressure | Rain* | Wind** | Luminosity | Snow |
|---|---|---|---|---|---|---|---|
| 1778196336 | 21.11° C | 60% | 1017.1 hPa | 0 mm | - | - | - |
| 1778196034 | 21.67° C | 60% | 1017.3 hPa | 0 mm | - | - | - |
| 1778195730 | 21.67° C | 59% | 1017.1 hPa | 0 mm | - | - | - |
| 1778195428 | 22.22° C | 57% | 1017.3 hPa | 0 mm | - | - | - |
| 1778195124 | 22.22° C | 54% | 1017.1 hPa | 0 mm | - | - | - |
| 1778194821 | 22.78° C | 51% | 1017 hPa | 0 mm | - | - | - |
| 1778194516 | 22.78° C | 51% | 1017.1 hPa | 0 mm | - | - | - |
| 1778194212 | 22.78° C | 50% | 1017.1 hPa | 0 mm | - | - | - |
| 1778193908 | 22.78° C | 50% | 1017 hPa | 0 mm | - | - | - |
| 1778193605 | 23.33° C | 49% | 1017.1 hPa | 0 mm | - | - | - |
| 1778193301 | 23.33° C | 48% | 1017.3 hPa | 0 mm | - | - | - |
| 1778192998 | 23.33° C | 47% | 1017.1 hPa | 0 mm | - | - | - |
| 1778192695 | 23.33° C | 47% | 1017.3 hPa | 0 mm | - | - | - |
| 1778192391 | 23.33° C | 48% | 1017.1 hPa | 0 mm | - | - | - |
| 1778192088 | 23.33° C | 47% | 1017.2 hPa | 0 mm | - | - | - |
| 1778191785 | 23.33° C | 46% | 1017.3 hPa | 0 mm | - | - | - |
| 1778191482 | 23.89° C | 45% | 1017.5 hPa | 0 mm | - | - | - |
| 1778191179 | 23.89° C | 48% | 1017.2 hPa | 0 mm | - | - | - |
| 1778190875 | 23.89° C | 46% | 1017.3 hPa | 0 mm | - | - | - |
| 1778190573 | 23.89° C | 47% | 1017.6 hPa | 0 mm | - | - | - |
| 1778190271 | 23.89° C | 47% | 1017.5 hPa | 0 mm | - | - | - |
| 1778189966 | 23.89° C | 49% | 1017.5 hPa | 0 mm | - | - | - |
| 1778189663 | 23.33° C | 48% | 1017.8 hPa | 0 mm | - | - | - |
| 1778189359 | 24.44° C | 47% | 1017.6 hPa | 0 mm | - | - | - |
| 1778189055 | 23.89° C | 47% | 1017.5 hPa | 0 mm | - | - | - |
* Rain latest hour (hover to see other rain measurements)
** Current wind speed in m/s (hover to see current wind gust speed)